Flag for Japan Weather past 2 weeks in Nagoya, Japan

Now
75 °F

Partly cloudy.


Feels Like: 75 °F
Forecast: 67 / 84 °F
Wind: 9 mph from Southeast

Location: Nagoya Airport

Current Time: Aug 30, 2014 at 7:36:48 PM

Latest Report: Aug 30, 2014 at 7:00 PM


Visibility: N/A

Pressure: 29.86 "Hg

Humidity: 83%

Dew point: 70 °F

Location of NagoyaLocation

Historic Weather in Nagoya — Graph

°F

Nagoya temperature yesterday

Maximum temperature yesterday: 79 °F (at 12:00 PM)
Minimum temperature yesterday: 72 °F (at 1:00 AM)
Average temperature yesterday: 75 °F

Past Weeks' High & Low Weather Summary

 TemperatureHumidityPressure
High90 °F (Aug 19, 2:00 PM)100% (Aug 18, 5:30 AM)29.98 "Hg (Aug 18, 5:30 AM)
Low70 °F (Aug 30, 2:00 AM)59% (Aug 20, 1:30 PM)29.68 "Hg (Aug 26, 2:00 PM)
Average80 °F84%29.87 "Hg
* Reported Aug 15 6:00 PM — Aug 30 6:30 PM, Nagoya, Weather by CustomWeather, © 2014

Note: Actual official high and low records may vary slightly from our data, if they occured in-between our weather recording intervals... More about our weather records

Advertising

Nagoya weather history for previous 24 hours

 ConditionsComfort  
Time TempWeatherWind HumidityBarometerVisibility
6:30 PM
Aug 30
75 °FPassing clouds.9 mph78%29.86 "HgN/A
6:00 PM77 °FScattered clouds.9 mph74%29.86 "HgN/A
5:30 PM77 °FScattered clouds.12 mph69%29.83 "HgN/A
5:00 PM77 °FPassing clouds.12 mph69%29.86 "HgN/A
4:30 PM79 °FPassing clouds.13 mph70%29.86 "HgN/A
4:00 PM79 °FScattered clouds.15 mph70%29.86 "HgN/A
3:30 PM79 °FPassing clouds.15 mph74%29.86 "HgN/A
3:00 PM79 °FScattered clouds.16 mph74%29.86 "HgN/A
2:30 PM79 °FPassing clouds.16 mph74%29.86 "HgN/A
2:00 PM79 °FPassing clouds.15 mph74%29.86 "HgN/A
1:30 PM79 °FPassing clouds.14 mph74%29.89 "HgN/A
1:00 PM79 °FPassing clouds.13 mph70%29.89 "HgN/A
12:30 PM79 °FPassing clouds.13 mph74%29.89 "HgN/A
12:00 PM77 °FScattered clouds.10 mph74%29.89 "HgN/A
11:30 AM77 °FScattered clouds.9 mph74%29.89 "HgN/A
11:00 AM77 °FScattered clouds.7 mph74%29.89 "HgN/A
10:30 AM77 °FScattered clouds.5 mph69%29.89 "HgN/A
10:00 AM75 °FPartly sunny.5 mph74%29.89 "HgN/A
9:30 AM75 °FPartly sunny.2 mph74%29.92 "HgN/A
9:00 AM75 °FScattered clouds.3 mph74%29.92 "HgN/A
8:30 AM73 °FScattered clouds.5 mph83%29.92 "HgN/A
8:00 AM73 °FPartly sunny.5 mph83%29.92 "HgN/A
7:30 AM73 °FPartly sunny.3 mph89%29.92 "HgN/A
7:00 AM72 °FScattered clouds.5 mph88%29.92 "HgN/A
6:30 AM70 °FScattered clouds.3 mph94%29.92 "HgN/A
6:00 AM70 °FScattered clouds.3 mph94%29.92 "HgN/A
4:00 AM70 °FPassing clouds.6 mph88%29.92 "HgN/A
3:30 AM70 °FPassing clouds.6 mph88%29.89 "HgN/A
3:00 AM70 °FLight rain. Passing clouds.8 mph88%29.92 "HgN/A
2:30 AM70 °FLight rain. Passing clouds.7 mph88%29.92 "HgN/A
2:00 AM70 °FLight rain. Passing clouds.9 mph94%29.92 "HgN/A
1:30 AM72 °FLight rain. Partly cloudy.6 mph88%29.92 "HgN/A
1:00 AM72 °FLight rain. Partly cloudy.7 mph88%29.92 "HgN/A
12:30 AM72 °FLight rain. Partly cloudy.7 mph88%29.92 "HgN/A
12:00 AM72 °FLight rain. Partly cloudy.6 mph88%29.92 "HgN/A
11:30 PM
Aug 29
72 °FLight rain. Passing clouds.5 mph88%29.95 "HgN/A
11:00 PM73 °FLight rain. Passing clouds.2 mph83%29.95 "HgN/A
10:30 PM73 °FLight rain. Passing clouds.3 mph78%29.95 "HgN/A
10:00 PM73 °FLight rain. Partly cloudy.6 mph78%29.95 "HgN/A
9:30 PM73 °FLight rain. Partly cloudy.3 mph83%29.95 "HgN/A
9:00 PM75 °FLight rain. Mostly cloudy.5 mph78%29.95 "HgN/A
8:30 PM73 °FLight rain. Mostly cloudy.3 mph83%29.92 "HgN/A
8:00 PM73 °FLight rain. Partly cloudy.6 mph83%29.95 "HgN/A
7:30 PM75 °FLight rain. Mostly cloudy.6 mph83%29.92 "HgN/A
7:00 PM75 °FLight rain. Mostly cloudy.7 mph83%29.92 "HgN/A
Weather by CustomWeather, © 2014

See weather overviewHow to use our weather pages